一网星座-0128星 (ONEWEB-0128 )

导读

ONEWEB-0128是英国OneWeb星座项目的低轨通信卫星,于2020年12月18日发射升空,属于OneWeb一期组网卫星。单星重量约147.5公斤,设计寿命5年,运行在约1200公里的近地极轨轨道,搭载Ku/Ka波段天线,单星通信能力约7.5Gbps,可为全球提供高带宽低延迟互联网接入服务,用户终端下载速率最高可达50Mbps,是OneWeb全球低轨巨型星座的重要组成部分。

Basic Information
目录编号:
47274
目录名称:
ONEWEB-0128
国际标识:
2020-100S
轨道中心:
EARTH
卫星名称:
一网星座-0128星
卫星全名:
一网星座-0128星 (ONEWEB-0128 )
卫星状态:
在轨 (已飞行2047 天)
发射日期:
2020-12-18 UTC
国别 :
英国 (GB)
星等 :
--
Orbit Information
数据来源 国际轨道数据 AOE轨道数据
星历时间 2026-07-27T05:39:50+0800
1天前
查看轨道信息
2026-07-22T07:00:00+0800
5天前
查看轨道信息
半长轴 7591.858km 7591.858km
偏心率 0.0001958 0.0001804
轨道倾角 87.897° 87.896°
近地点辐角 106.834° 104.387°
升交点赤经 342.786° 343.769°
平近点角 253.300° 308.142°
近地点 1212.234km 1212.351km
远地点 1215.208km 1215.091km
周期 109.719分钟 109.719分钟
每日圈数 13.124437 13.124436
Detailed Information
平衡模式:
三轴稳定
覆盖范围:
全球
运营商:
一网卫星公司
运营商所在国:
英国
制造商(研发单位):
一网卫星公司
制造商所在国:
英国
使用方式:
暂无
Satellite Introduction
OneWeb卫星网络由648颗重约125公斤的微型卫星组成,运行在1200公里的轨道上。 每颗卫星都能够提供至少每秒8千兆位的吞吐量,以使用其高吞吐量的Ku频段有效载荷为家庭和移动平台提供互联网接入。该卫星仍在工作。
2D Orbit Map
3D Orbit Map
Orbit Altitude Analysis Chart
Orbit Inclination Analysis Chart
Orbit Comprehensive Analysis Chart
View Comprehensive Chart